User: anonymous   Login
Location: Meetinghouse Hill
(42.7686°N, 71.7752°W)
Time: 10:44:41
(UTC-04:00)
Language:

Iridium 34 - Orbit

View from above orbital plane
View from above orbital plane
View from above satellite
View from above satellite

Ground track
Ground track

The orbit data is extracted from the following two-line orbital elements,

1 24969U 97056E   17268.52556249 -.00000046  00000-0 -23637-4 0  9996
2 24969  86.3917 276.8589 0002141  88.6028 271.5413 14.34218855 46915
Epoch (UTC): 25 September 2017 12:36:48
Eccentricity: 0.0002141
inclination: 86.3917°
perigee height: 776 km
apogee height: 779 km
right ascension of ascending node: 276.8589°
argument of perigee: 88.6028°
revolutions per day: 14.34218855
mean anomaly at epoch: 271.5413°
orbit number at epoch: 4691

The dashed part of the orbit path shows where the satellite is in the earth's shadow,  

DLR